This demonstration page uses our WeatherBlox Daily Observations layout. Learn more.

Left ArrowRight Arrow

39.08367, -84.50855

Hourly Observations for November 29, 2018

Temp ( °F °C ) Dew Point ( °F °C ) Humidity (%) Winds ( mph kmh ) Pressure ( in mb ) Visibility ( mi km ) Precip ( " mm )
12:53 am 00:53 Cloudy 29 -1.7 23 -5 78 78 Calm 30.13 1020 10 16 0.00 0.00
1:53 am 01:53 Mostly Cloudy 28 -2.2 24 -4.4 85 85 S 5 7 30.14 1021 10 16 0.00 0.00
2:53 am 02:53 Mostly Cloudy 29 -1.7 23 -5 78 78 Calm 30.13 1020 10 16 0.00 0.00
3:53 am 03:53 Cloudy 29 -1.7 23 -5 78 78 SSE 3 6 30.13 1020 10 16 0.00 0.00
4:53 am 04:53 Cloudy 29 -1.7 23 -5 78 78 Calm 30.10 1019 10 16 0.00 0.00
5:53 am 05:53 Mostly Clear 29 -1.7 23 -5 78 78 Calm 30.10 1019 10 16 0.00 0.00
6:53 am 06:53 Cloudy 30 -1.1 23 -5 75 75 Calm 30.10 1019 10 16 0.00 0.00
7:53 am 07:53 Cloudy with Light Wintry Mix 30 -1.1 24 -4.4 79 79 SSE 3 6 30.09 1019 10 16 0.00 0.03
8:53 am 08:53 Cloudy with Light Wintry Mix 31 -0.6 24 -4.4 76 76 Calm 30.07 1018 10 16 0.00 0.03
9:53 am 09:53 Cloudy 32 0 24 -4.4 73 73 Calm 30.07 1018 10 16 0.00 0.03
10:27 am 10:27 Cloudy with Light Rain 32 0 27 -2.8 82 82 S 3 6 30.09 1019 6 10 0.01 0.25
10:53 am 10:53 Cloudy 32 0 27 -2.8 82 82 S 3 6 30.07 1018 10 16 0.02 0.51
11:53 am 11:53 Cloudy 34 1.1 28 -2.2 79 79 Calm 30.02 1017 10 16 0.00 0.00
12:53 pm 12:53 Cloudy 35 1.7 28 -2.2 76 76 Calm 29.99 1016 10 16 0.00 0.00
1:53 pm 13:53 Cloudy with Haze 35 1.7 30 -1.1 82 82 Calm 29.97 1015 5 8 0.00 0.00
2:53 pm 14:53 Cloudy with Mist and Fog 35 1.7 32 0 89 89 Calm 29.96 1015 5 8 0.00 0.00
3:53 pm 15:53 Cloudy with Mist and Fog 36 2.2 33 0.6 89 89 Calm 29.96 1015 5 8 0.00 0.00
4:53 pm 16:53 Cloudy with Mist and Fog 37 2.8 33 0.6 86 86 Calm 29.96 1015 5 8 0.00 0.00
5:53 pm 17:53 Cloudy with Mist and Fog 37 2.8 34 1.1 89 89 NE 3 6 29.96 1015 4 6 0.00 0.00
6:53 pm 18:53 Cloudy with Mist and Fog 37 2.8 35 1.7 93 93 Calm 29.95 1014 6 10 0.00 0.00
7:53 pm 19:53 Cloudy 37 2.8 35 1.7 93 93 Calm 29.96 1015 8 13 0.00 0.00
8:13 pm 20:13 Cloudy 38 3.3 35 1.7 89 89 Calm 29.94 1014 9 14 0.00 0.00
8:53 pm 20:53 Cloudy 38 3.3 35 1.7 89 89 Calm 29.95 1014 9 14 0.00 0.00
9:53 pm 21:53 Cloudy 38 3.3 36 2.2 93 93 Calm 29.96 1015 9 14 0.00 0.00
10:53 pm 22:53 Cloudy 39 3.9 36 2.2 89 89 N 5 7 29.96 1015 8 13 0.00 0.00
11:21 pm 23:21 Cloudy 39 3.9 36 2.2 89 89 Calm 29.94 1014 8 13 0.00 0.00
11:53 pm 23:53 Cloudy 39 3.9 36 2.2 89 89 Calm 29.96 1014 8 13 0.00 0.00

Powered by AerisWeather